TimePST,TemperatureF,Dew PointF,Humidity,Sea Level PressureIn,VisibilityMPH,Wind Direction,Wind SpeedMPH,Gust SpeedMPH,PrecipitationIn,Events,Conditions,WindDirDegrees,DateUTC
12:53 AM,42.1,7.0,24,30.37,10.0,NNW,5.8,-,N/A,,Clear,330,2011-12-06 08:53:00
1:53 AM,42.1,10.9,28,30.36,10.0,SW,5.8,-,N/A,,Clear,230,2011-12-06 09:53:00
2:53 AM,43.0,9.0,25,30.37,10.0,NNW,5.8,-,N/A,,Clear,330,2011-12-06 10:53:00
3:53 AM,37.9,10.9,33,30.36,10.0,Calm,Calm,-,N/A,,Clear,0,2011-12-06 11:53:00
4:53 AM,37.0,10.0,33,30.37,10.0,North,5.8,-,N/A,,Clear,350,2011-12-06 12:53:00
5:53 AM,37.9,10.9,33,30.38,10.0,Calm,Calm,-,N/A,,Clear,0,2011-12-06 13:53:00
6:53 AM,39.0,12.9,34,30.39,10.0,Calm,Calm,-,N/A,,Clear,0,2011-12-06 14:53:00
7:53 AM,43.0,8.1,24,30.42,10.0,North,4.6,-,N/A,,Clear,10,2011-12-06 15:53:00
8:53 AM,48.2,8.6,20,30.42,10.0,Calm,Calm,-,N/A,,Clear,0,2011-12-06 16:53:00
9:53 AM,53.1,5.0,14,30.43,10.0,Calm,Calm,-,N/A,,Clear,0,2011-12-06 17:53:00
10:53 AM,55.4,8.6,15,30.40,10.0,East,4.6,-,N/A,,Clear,100,2011-12-06 18:53:00
11:53 AM,57.9,7.0,13,30.37,10.0,SE,4.6,-,N/A,,Clear,130,2011-12-06 19:53:00
12:53 PM,59.0,9.0,14,30.35,10.0,East,6.9,-,N/A,,Clear,90,2011-12-06 20:53:00
1:53 PM,60.1,7.0,12,30.33,10.0,ESE,8.1,-,N/A,,Clear,110,2011-12-06 21:53:00
2:53 PM,60.1,8.1,13,30.33,10.0,East,9.2,-,N/A,,Clear,100,2011-12-06 22:53:00
3:53 PM,57.9,10.0,15,30.33,10.0,East,6.9,-,N/A,,Clear,90,2011-12-06 23:53:00
4:53 PM,54.0,14.0,21,30.33,10.0,SE,3.5,-,N/A,,Clear,130,2011-12-07 00:53:00
5:53 PM,52.0,18.0,26,30.34,10.0,Calm,Calm,-,N/A,,Clear,0,2011-12-07 01:53:00
6:53 PM,46.9,17.1,30,30.36,10.0,NNW,5.8,-,N/A,,Clear,330,2011-12-07 02:53:00
7:53 PM,43.0,8.1,24,30.37,10.0,NNW,5.8,-,N/A,,Clear,340,2011-12-07 03:53:00
8:53 PM,43.0,10.0,26,30.38,10.0,NW,4.6,-,N/A,,Clear,320,2011-12-07 04:53:00
9:53 PM,43.0,12.9,30,30.38,10.0,NW,4.6,-,N/A,,Clear,310,2011-12-07 05:53:00
10:53 PM,41.0,21.0,45,30.38,10.0,Calm,Calm,-,N/A,,Clear,0,2011-12-07 06:53:00
11:53 PM,42.8,6.8,23,30.35,10.0,NW,5.8,-,N/A,,Clear,310,2011-12-07 07:53:00